| time (UTC) | temp F | wind direction | speed knots | gust knots | rain 1hr in | rain 24hr in | rain mn in | humidity % | barometer mb |
| 20260507052415 | 49 | 225 | 3.5 | 5.2 | 0.00 | 0.69 | 0.05 | 92 | 1009.6 |
| 20260507051415 | 49 | 203 | 2.6 | 4.3 | 0.00 | 0.69 | 0.05 | 92 | 1009.3 |
| 20260507050415 | 49 | 248 | 6.1 | 8.7 | 0.01 | 0.69 | 0.05 | 92 | 1009.3 |
| 20260507045415 | 49 | 225 | 3.5 | 4.3 | 0.01 | 0.69 | 0.05 | 92 | 1009.1 |
| 20260507044415 | 49 | 225 | 2.6 | 4.3 | 0.01 | 0.69 | 0.05 | 92 | 1009.0 |
| 20260507043436 | 49 | 248 | 5.2 | 8.7 | 0.01 | 0.69 | 0.05 | 92 | 1009.0 |
| 20260507042435 | 49 | 248 | 4.3 | 8.7 | 0.01 | 0.69 | 0.05 | 92 | 1008.9 |
| 20260507041415 | 49 | 225 | 8.7 | 12.2 | 0.02 | 0.69 | 0.05 | 92 | 1008.6 |
| 20260507040415 | 50 | 203 | 3.5 | 5.2 | 0.02 | 0.68 | 0.04 | 92 | 1008.6 |
| 20260507035417 | 50 | 225 | 9.6 | 13.0 | 0.02 | 0.68 | 0.04 | 92 | 1008.4 |
| 20260507034417 | 50 | 180 | 4.3 | 8.7 | 0.02 | 0.68 | 0.04 | 92 | 1008.4 |
| 20260507033417 | 50 | 203 | 1.7 | 4.3 | 0.02 | 0.68 | 0.04 | 92 | 1008.4 |
| 20260507032417 | 50 | 180 | 0.9 | 1.7 | 0.02 | 0.68 | 0.04 | 92 | 1008.4 |
| 20260507031417 | 50 | 203 | 2.6 | 4.3 | 0.01 | 0.66 | 0.02 | 92 | 1008.2 |
| 20260507030437 | 50 | 180 | 3.5 | 4.3 | 0.01 | 0.65 | 0.02 | 92 | 1008.2 |
| 20260507025417 | 50 | 203 | 4.3 | 6.1 | 0.01 | 0.65 | 0.02 | 92 | 1008.2 |
| 20260507024417 | 50 | 203 | 4.3 | 6.1 | 0.01 | 0.65 | 0.02 | 92 | 1008.3 |
| 20260507023417 | 50 | 203 | 3.5 | 5.2 | 0.01 | 0.65 | 0.02 | 92 | 1008.3 |
| 20260507022417 | 51 | 203 | 5.2 | 6.1 | 0.01 | 0.65 | 0.02 | 92 | 1008.3 |
| 20260507021417 | 51 | 180 | 0.9 | 2.6 | 0.01 | 0.65 | 0.02 | 92 | 1008.1 |
| 20260507020417 | 51 | 203 | 7.0 | 10.4 | 0.00 | 0.65 | 0.01 | 92 | 1008.1 |
| 20260507015517 | 51 | 225 | 3.5 | 4.3 | 0.00 | 0.65 | 0.01 | 92 | 1008.1 |
| 20260507014417 | 51 | 203 | 3.5 | 5.2 | 0.00 | 0.65 | 0.01 | 92 | 1007.8 |
| 20260507013417 | 51 | 248 | 5.2 | 8.7 | 0.00 | 0.65 | 0.01 | 92 | 1007.8 |
| 20260507012437 | 51 | 225 | 7.8 | 12.2 | 0.00 | 0.65 | 0.01 | 92 | 1007.7 |
| 20260507011417 | 51 | 225 | 5.2 | 8.7 | 0.00 | 0.65 | 0.01 | 92 | 1007.8 |
| 20260507010417 | 51 | 203 | 5.2 | 9.6 | 0.00 | 0.65 | 0.01 | 92 | 1007.8 |
| 20260507005417 | 51 | 203 | 5.2 | 7.8 | 0.00 | 0.65 | 0.01 | 92 | 1007.6 |
| 20260507004416 | 52 | 180 | 7.0 | 12.2 | 0.00 | 0.65 | 0.01 | 92 | 1007.7 |
| 20260507003416 | 52 | 203 | 6.1 | 8.7 | 0.00 | 0.65 | 0.01 | 92 | 1007.7 |
| 20260507002416 | 52 | 225 | 3.5 | 5.2 | 0.00 | 0.65 | 0.01 | 92 | 1007.7 |
| 20260507001416 | 52 | 203 | 2.6 | 4.3 | 0.00 | 0.65 | 0.01 | 92 | 1007.8 |
| 20260507000416 | 52 | 203 | 1.7 | 2.6 | 0.00 | 0.65 | 0.01 | 92 | 1007.8 |
| 20260506235417 | 52 | 225 | 2.6 | 2.6 | 0.00 | 0.65 | 0.01 | 91 | 1007.7 |
| 20260506234437 | 52 | 225 | 3.5 | 6.1 | 0.00 | 0.65 | 0.01 | 91 | 1007.6 |
| 20260506233437 | 52 | 180 | 1.7 | 4.3 | 0.00 | 0.65 | 0.01 | 91 | 1007.6 |
| 20260506232436 | 52 | 203 | 2.6 | 4.3 | 0.00 | 0.65 | 0.01 | 92 | 1007.6 |
| 20260506231416 | 52 | 180 | 2.6 | 4.3 | 0.00 | 0.65 | 0.01 | 91 | 1007.5 |
| 20260506230416 | 52 | 203 | 2.6 | 5.2 | 0.01 | 0.65 | 0.01 | 91 | 1007.5 |
| 20260506225417 | 52 | 180 | 0.9 | 1.7 | 0.01 | 0.65 | 0.01 | 91 | 1007.5 |
| 20260506224416 | 52 | 0.0 | 1.7 | 0.01 | 0.65 | 0.01 | 91 | 1007.4 | |
| 20260506223417 | 52 | 180 | 0.9 | 3.5 | 0.01 | 0.65 | 0.01 | 91 | 1007.4 |
| 20260506222416 | 52 | 180 | 1.7 | 4.3 | 0.01 | 0.65 | 0.01 | 91 | 1007.4 |
| 20260506221417 | 52 | 180 | 1.7 | 2.6 | 0.01 | 0.65 | 0.01 | 91 | 1007.2 |
| 20260506220416 | 52 | 0.0 | 1.7 | 0.00 | 0.64 | 0.00 | 91 | 1007.2 | |
| 20260506215437 | 52 | 180 | 1.7 | 2.6 | 0.02 | 0.64 | 0.64 | 91 | 1007.0 |
| 20260506214417 | 52 | 0.0 | 0.0 | 0.06 | 0.64 | 0.64 | 90 | 1006.9 | |
| 20260506213417 | 52 | 180 | 1.7 | 2.6 | 0.07 | 0.64 | 0.64 | 90 | 1006.9 |
| 20260506212417 | 52 | 0.0 | 0.0 | 0.11 | 0.64 | 0.64 | 90 | 1006.9 | |
| 20260506211417 | 52 | 0.0 | 0.0 | 0.15 | 0.64 | 0.64 | 90 | 1007.2 | |
| 20260506210424 | 52 | 180 | 1.7 | 2.6 | 0.17 | 0.64 | 0.64 | 90 | 1007.2 |
| 20260506205457 | 53 | 0.0 | 0.0 | 0.16 | 0.62 | 0.62 | 90 | 1007.3 | |
| 20260506204417 | 53 | 0.0 | 0.0 | 0.13 | 0.58 | 0.58 | 90 | 1007.4 | |
| 20260506203417 | 53 | 0.0 | 0.0 | 0.11 | 0.57 | 0.57 | 90 | 1007.5 | |
| 20260506202437 | 53 | 180 | 1.7 | 2.6 | 0.07 | 0.53 | 0.53 | 90 | 1007.1 |
| 20260506201417 | 53 | 203 | 0.9 | 1.7 | 0.03 | 0.49 | 0.49 | 90 | 1006.9 |
| 20260506200436 | 54 | 248 | 1.7 | 1.7 | 0.02 | 0.47 | 0.47 | 90 | 1006.9 |
| 20260506200310 | 54 | 248 | 3.5 | 6.1 | 0.02 | 0.46 | 0.46 | 89 | 1006.2 |
| 20260506193856 | 54 | 293 | 7.0 | 9.6 | 0.01 | 0.46 | 0.46 | 89 | 1005.6 |
| 20260506192836 | 54 | 68 | 0.9 | 1.7 | 0.01 | 0.46 | 0.46 | 89 | 1005.5 |
| 20260506191816 | 54 | 68 | 2.6 | 3.5 | 0.03 | 0.46 | 0.46 | 89 | 1005.5 |
| 20260506190816 | 54 | 158 | 0.9 | 1.7 | 0.08 | 0.46 | 0.46 | 88 | 1005.6 |
| 20260506185816 | 55 | 158 | 0.9 | 2.6 | 0.21 | 0.45 | 0.45 | 87 | 1005.5 |
| 20260506184816 | 55 | 0.0 | 1.7 | 0.35 | 0.45 | 0.45 | 87 | 1005.5 | |
| 20260506183815 | 55 | 158 | 1.7 | 2.6 | 0.36 | 0.45 | 0.45 | 86 | 1005.4 |
| 20260506182815 | 56 | 203 | 1.7 | 2.6 | 0.36 | 0.46 | 0.45 | 85 | 1005.2 |
| 20260506181815 | 56 | 203 | 0.9 | 1.7 | 0.36 | 0.45 | 0.43 | 84 | 1005.4 |
| 20260506180815 | 57 | 203 | 1.7 | 4.3 | 0.37 | 0.41 | 0.38 | 83 | 1005.6 |
| 20260506175816 | 58 | 180 | 3.5 | 8.7 | 0.24 | 0.31 | 0.24 | 81 | 1004.9 |
| 20260506174818 | 60 | 203 | 6.1 | 8.7 | 0.10 | 0.25 | 0.10 | 79 | 1005.0 |
| 20260506173816 | 60 | 23 | 0.9 | 2.6 | 0.09 | 0.38 | 0.09 | 76 | 1004.5 |
| 20260506172816 | 61 | 338 | 1.7 | 2.6 | 0.09 | 0.42 | 0.09 | 75 | 1004.3 |
| 20260506171816 | 62 | 315 | 3.5 | 4.3 | 0.06 | 0.53 | 0.06 | 73 | 1004.4 |
| 20260506170816 | 63 | 315 | 0.9 | 2.6 | 0.01 | 0.48 | 0.01 | 70 | 1004.2 |
| 20260506165836 | 64 | 0.0 | 0.9 | 0.00 | 0.47 | 0.00 | 68 | 1004.3 | |
| 20260506164935 | 64 | 315 | 1.7 | 2.6 | 0.00 | 0.47 | 0.00 | 66 | 1004.3 |
| 20260506164152 | 65 | 315 | 0.9 | 3.5 | 0.00 | 0.47 | 0.00 | 65 | 1004.3 |
| 20260506163455 | 65 | 315 | 0.9 | 2.6 | 0.00 | 0.47 | 0.00 | 65 | 1004.3 |
| 20260506162435 | 65 | 315 | 0.9 | 2.6 | 0.00 | 0.47 | 0.00 | 64 | 1004.4 |
| 20260506161415 | 65 | 0.0 | 0.9 | 0.00 | 0.47 | 0.00 | 65 | 1004.4 | |
| 20260506160415 | 65 | 315 | 1.7 | 2.6 | 0.00 | 0.47 | 0.00 | 64 | 1004.4 |
| 20260506155415 | 65 | 0.0 | 0.9 | 0.00 | 0.47 | 0.00 | 65 | 1004.4 | |
| 20260506154455 | 65 | 315 | 1.7 | 2.6 | 0.00 | 0.47 | 0.00 | 65 | 1004.7 |
| 20260506153415 | 65 | 338 | 1.7 | 2.6 | 0.00 | 0.47 | 0.00 | 64 | 1004.7 |
| 20260506152415 | 66 | 338 | 1.7 | 2.6 | 0.00 | 0.47 | 0.00 | 63 | 1004.7 |
| 20260506151417 | 66 | 293 | 2.6 | 2.6 | 0.00 | 0.47 | 0.00 | 63 | 1004.8 |
| 20260506150417 | 66 | 293 | 0.9 | 2.6 | 0.00 | 0.47 | 0.00 | 63 | 1004.8 |
| 20260506145417 | 66 | 270 | 0.9 | 3.5 | 0.00 | 0.47 | 0.00 | 61 | 1005.0 |
| 20260506144417 | 66 | 270 | 1.7 | 3.5 | 0.00 | 0.47 | 0.00 | 60 | 1005.0 |
| 20260506143417 | 67 | 270 | 1.7 | 2.6 | 0.00 | 0.47 | 0.00 | 58 | 1005.0 |
| 20260506142417 | 68 | 0.0 | 0.9 | 0.00 | 0.47 | 0.00 | 59 | 1005.1 | |
| 20260506141417 | 67 | 315 | 0.9 | 1.7 | 0.00 | 0.47 | 0.00 | 62 | 1005.0 |
| 20260506140420 | 66 | 135 | 0.9 | 2.6 | 0.00 | 0.47 | 0.00 | 60 | 1005.0 |
| 20260506135417 | 66 | 180 | 2.6 | 3.5 | 0.00 | 0.47 | 0.00 | 61 | 1005.0 |
| 20260506134417 | 66 | 225 | 3.5 | 4.3 | 0.00 | 0.47 | 0.00 | 64 | 1005.5 |
| 20260506133415 | 65 | 248 | 0.9 | 2.6 | 0.00 | 0.47 | 0.00 | 64 | 1005.4 |
| 20260506132417 | 65 | 225 | 3.5 | 6.1 | 0.00 | 0.47 | 0.00 | 64 | 1005.5 |
| 20260506131417 | 64 | 270 | 1.7 | 2.6 | 0.00 | 0.47 | 0.00 | 66 | 1005.6 |
| 20260506130417 | 64 | 248 | 0.9 | 2.6 | 0.00 | 0.47 | 0.00 | 65 | 1005.6 |
| 20260506125417 | 64 | 158 | 0.9 | 2.6 | 0.00 | 0.47 | 0.00 | 65 | 1005.6 |
| 20260506124437 | 64 | 203 | 4.3 | 6.1 | 0.00 | 0.47 | 0.00 | 66 | 1005.7 |
| 20260506123417 | 64 | 203 | 1.7 | 2.6 | 0.00 | 0.47 | 0.00 | 64 | 1005.7 |
| 20260506122417 | 64 | 180 | 3.5 | 4.3 | 0.00 | 0.47 | 0.00 | 64 | 1006.0 |
| 20260506121417 | 64 | 180 | 3.5 | 5.2 | 0.00 | 0.47 | 0.00 | 65 | 1006.0 |
| 20260506120417 | 64 | 248 | 6.1 | 8.7 | 0.00 | 0.47 | 0.00 | 65 | 1006.0 |
| 20260506115417 | 64 | 158 | 2.6 | 5.2 | 0.00 | 0.47 | 0.00 | 66 | 1006.0 |
| 20260506114417 | 64 | 180 | 3.5 | 5.2 | 0.00 | 0.47 | 0.00 | 65 | 1006.1 |
| 20260506113417 | 64 | 180 | 1.7 | 3.5 | 0.00 | 0.47 | 0.00 | 65 | 1006.1 |
| 20260506112417 | 64 | 180 | 2.6 | 7.8 | 0.00 | 0.47 | 0.00 | 66 | 1006.4 |
| 20260506111436 | 63 | 158 | 2.6 | 4.3 | 0.00 | 0.47 | 0.00 | 66 | 1006.4 |
| 20260506110537 | 64 | 180 | 0.9 | 1.7 | 0.00 | 0.47 | 0.00 | 65 | 1006.4 |
| 20260506105417 | 63 | 180 | 6.1 | 10.4 | 0.00 | 0.47 | 0.00 | 67 | 1006.6 |
| 20260506104416 | 63 | 158 | 5.2 | 9.6 | 0.00 | 0.47 | 0.00 | 69 | 1006.8 |
| 20260506103436 | 62 | 203 | 5.2 | 8.7 | 0.00 | 0.47 | 0.00 | 69 | 1006.7 |
| 20260506102417 | 62 | 158 | 6.1 | 9.6 | 0.00 | 0.47 | 0.00 | 69 | 1006.7 |
| 20260506101417 | 62 | 180 | 3.5 | 5.2 | 0.00 | 0.47 | 0.00 | 71 | 1006.6 |
| 20260506100416 | 62 | 158 | 4.3 | 6.1 | 0.00 | 0.47 | 0.00 | 71 | 1006.6 |
| 20260506095416 | 61 | 203 | 3.5 | 8.7 | 0.00 | 0.47 | 0.00 | 74 | 1006.8 |
| 20260506094456 | 60 | 180 | 4.3 | 6.1 | 0.00 | 0.47 | 0.00 | 75 | 1006.6 |
| 20260506093417 | 60 | 180 | 1.7 | 3.5 | 0.00 | 0.47 | 0.00 | 75 | 1006.6 |
| 20260506092416 | 60 | 135 | 1.7 | 2.6 | 0.00 | 0.47 | 0.00 | 76 | 1006.6 |
| 20260506091416 | 59 | 248 | 4.3 | 8.7 | 0.00 | 0.47 | 0.00 | 75 | 1006.9 |
| 20260506090416 | 59 | 158 | 2.6 | 4.3 | 0.00 | 0.47 | 0.00 | 77 | 1006.9 |
| 20260506085508 | 59 | 158 | 4.3 | 6.1 | 0.00 | 0.47 | 0.00 | 79 | 1007.0 |
| 20260506084416 | 58 | 225 | 7.0 | 9.6 | 0.00 | 0.47 | 0.00 | 79 | 1006.8 |
| 20260506083416 | 58 | 180 | 2.6 | 4.3 | 0.00 | 0.47 | 0.00 | 81 | 1006.8 |
| 20260506082416 | 57 | 135 | 1.7 | 4.3 | 0.00 | 0.47 | 0.00 | 83 | 1006.8 |
| 20260506081436 | 56 | 180 | 4.3 | 6.1 | 0.00 | 0.47 | 0.00 | 83 | 1006.6 |
| 20260506080416 | 56 | 180 | 5.2 | 6.1 | 0.00 | 0.47 | 0.00 | 85 | 1006.6 |
| 20260506073436 | 55 | 203 | 6.1 | 7.8 | 0.00 | 0.47 | 0.00 | 88 | 1006.7 |
| 20260506072416 | 55 | 203 | 4.3 | 7.0 | 0.00 | 0.47 | 0.00 | 90 | 1006.6 |
| 20260506071436 | 54 | 180 | 1.7 | 3.5 | 0.00 | 0.47 | 0.00 | 91 | 1006.4 |
| 20260506070416 | 54 | 158 | 2.6 | 4.3 | 0.00 | 0.47 | 0.00 | 91 | 1006.4 |
| 20260506062416 | 53 | 180 | 2.6 | 5.2 | 0.00 | 0.47 | 0.00 | 91 | 1006.3 |
| 20260506061416 | 53 | 225 | 3.5 | 6.1 | 0.00 | 0.47 | 0.00 | 91 | 1006.6 |
| 20260506060416 | 52 | 225 | 2.6 | 5.2 | 0.00 | 0.47 | 0.00 | 92 | 1006.6 |